DAL029 KIAH-KMCO

Flight info

Callsign DAL029
Flight time N/A
Altitude 37000
Route MMUGS4 LLA LEV Y280 CHRGE PRICY3
Aircraft A320/M-VGDW/C

Departure

Time 2025-09-08 14:03
Airport George Bush Intercontinental Airport (KIAH)

Arrival

Time N/A
Airport Orlando International Airport (KMCO)
Time Latitude Longitude Altitude Speed Heading
2025-09-08 13:22 29.98434 -95.34403 102 ft 0 kts
2025-09-08 13:55 29.98398 -95.34410 102 ft 3 kts
2025-09-08 13:56 29.98365 -95.34416 102 ft 2 kts
2025-09-08 13:56 29.98356 -95.34418 102 ft 0 kts
2025-09-08 13:57 29.98343 -95.34421 102 ft 2 kts
2025-09-08 13:57 29.98346 -95.34417 101 ft 3 kts 36°
2025-09-08 13:58 29.98379 -95.34350 103 ft 5 kts 87°
2025-09-08 13:58 29.98375 -95.34124 103 ft 12 kts 95°
2025-09-08 13:59 29.98319 -95.33929 104 ft 13 kts 90°
2025-09-08 13:59 29.98334 -95.33807 103 ft 1 kts 16°
2025-09-08 14:00 29.98273 -95.33690 105 ft 13 kts 177°
2025-09-08 14:00 29.98227 -95.33624 105 ft 12 kts 92°
2025-09-08 14:01 29.98206 -95.33410 105 ft 13 kts 151°
2025-09-08 14:01 29.98018 -95.33396 106 ft 15 kts 179°
2025-09-08 14:02 29.97796 -95.33389 108 ft 15 kts 164°
2025-09-08 14:02 29.97763 -95.32801 104 ft 115 kts 89°
2025-09-08 14:03 29.97117 -95.27787 1358 ft 265 kts 125°
2025-09-08 14:03 29.93706 -95.25920 3485 ft 279 kts 144°
2025-09-08 14:04 29.92522 -95.22025 5623 ft 277 kts 87°
2025-09-08 14:04 29.92456 -95.19777 6383 ft 290 kts 90°
2025-09-08 14:05 29.92128 -95.14901 8072 ft 327 kts 94°
2025-09-08 14:05 29.91721 -95.09454 10498 ft 355 kts 94°
2025-09-08 14:06 29.91045 -95.03640 13012 ft 373 kts 97°
2025-09-08 14:06 29.90152 -94.97668 15514 ft 382 kts 99°
2025-09-08 14:07 29.88328 -94.88695 19252 ft 381 kts 104°
2025-09-08 14:07 29.87358 -94.82805 21579 ft 370 kts 95°
2025-09-08 14:08 29.87165 -94.79875 22736 ft 364 kts 90°
2025-09-08 14:08 29.86993 -94.74181 24752 ft 354 kts 92°
2025-09-08 14:09 29.86460 -94.68624 26563 ft 343 kts 92°
2025-09-08 14:11 29.84635 -94.46078 31329 ft 347 kts 94°
2025-09-08 14:13 29.83801 -94.26302 33976 ft 365 kts 90°
2025-09-08 14:15 29.80185 -93.99752 36646 ft 382 kts 91°
2025-09-08 14:17 29.78493 -93.79090 37702 ft 373 kts 90°
2025-09-08 14:19 29.78870 -93.50046 38184 ft 442 kts 93°
2025-09-08 14:21 29.76073 -93.23894 38220 ft 501 kts 92°
2025-09-08 14:23 29.73582 -92.87236 37539 ft 490 kts 92°
2025-09-08 14:25 29.71868 -92.61151 36940 ft 444 kts 90°
2025-09-08 14:27 29.69990 -92.34480 36817 ft 394 kts 92°
2025-09-08 14:29 29.68517 -92.10570 36352 ft 360 kts 90°
2025-09-08 14:31 29.66445 -91.90168 37209 ft 308 kts 95°
2025-09-08 14:33 29.62270 -91.70301 36173 ft 325 kts 110°
2025-09-08 14:35 29.62756 -91.50311 36254 ft 325 kts 80°
2025-09-08 14:36 29.63675 -91.31948 37337 ft 331 kts 90°
2025-09-08 14:39 29.62455 -91.08574 36671 ft 355 kts 90°
2025-09-08 14:41 29.60682 -90.83578 36742 ft 440 kts 97°
2025-09-08 14:43 29.57650 -90.48796 36773 ft 528 kts 88°
2025-09-08 14:45 29.56187 -90.19899 38676 ft 501 kts 90°
2025-09-08 14:47 29.55255 -89.90025 38370 ft 445 kts 100°
2025-09-08 14:49 29.50273 -89.63386 37693 ft 411 kts 97°
2025-09-08 14:51 29.48544 -89.38126 36675 ft 394 kts 91°
2025-09-08 14:53 29.45382 -89.12904 35763 ft 379 kts 100°
2025-09-08 14:55 29.43715 -88.90225 35544 ft 339 kts 96°
2025-09-08 14:57 29.39666 -88.70571 35860 ft 298 kts 118°
2025-09-08 14:59 29.37308 -88.50226 34660 ft 399 kts 91°
2025-09-08 15:01 29.33811 -88.22099 34373 ft 473 kts 95°
2025-09-08 15:03 29.32636 -87.93613 37092 ft 452 kts 89°
2025-09-08 15:05 29.29414 -87.63534 37257 ft 495 kts 96°